Procure no Apolo11
Meteógrafos Informações Meteorológicas em tempo real
Aeroporto de Congonhas
29-09-2022 05:55 BRT (UTC-3)

Temperatura atual: 12 graus 53 F    Umidade relativa: 100 %
Velocidade do vento: 09 nós 16 Km/h    Direção: 150 graus SSE
Ajuste do altímetro ..: 1023 HPA
Visibilidade: Regular    Tempo presente: Chovendo fraco

Observação
Céu encoberto a300 Pés.
Data Hora BRTTempo°CUmidadePressãoVentoVisib.
29/09 - 04:55   Poucas nuvens esparsas 12° 100% 1022 Sul/23 km/h OK
29/09 - 03:57   Chuvisco fraco 12° 100% 1023 Sul/16 km/h 4500
29/09 - 02:57   Chovendo fraco 13° 93% 1023 Sul/19 km/h 4200
29/09 - 01:57   Chovendo fraco 13° 93% 1023 Sul/18 km/h 4100
29/09 - 00:57   Chovendo fraco 13° 100% 1023 Sul-sudeste/14 km/h 3700
28/09 - 23:57   Chovendo fraco 13° 100% 1023 Sul/14 km/h OK
28/09 - 22:57   Chuvisco fraco 13° 93% 1024 Sul-sudeste/10 km/h 5000
28/09 - 21:58   Chovendo fraco 13° 93% 1024 Sul-sudeste/19 km/h OK
28/09 - 20:55   Chovendo fraco 13° 93% 1024 Sul-sudeste/19 km/h OK
28/09 - 19:57   Chovendo fraco 14° 87% 1024 Sul-sudeste/19 km/h 8000
28/09 - 18:57   Chovendo fraco 13° 93% 1023 Sul/19 km/h 8000
28/09 - 17:55   Chovendo fraco 14° 93% 1022 Sul/21 km/h OK
28/09 - 16:55   Chovendo fraco 14° 93% 1022 Sul/21 km/h 8000
28/09 - 15:55   Chovendo fraco 14° 93% 1022 Sul/21 km/h OK
28/09 - 14:55   Chovendo fraco 15° 87% 1022 Sul/18 km/h OK
28/09 - 13:55   Chovendo fraco 15° 93% 1022 Sul/21 km/h OK
28/09 - 12:55   Chovendo fraco 15° 100% 1022 Sul/23 km/h 7000
28/09 - 11:55   Chovendo fraco 17° 93% 1022 Sul/18 km/h 5000
28/09 - 11:00   Chovendo fraco 17° 93% 1022 Sul/18 km/h 5000
28/09 - 09:55   Céu Encoberto 17° 93% 1022 Sul-sudeste/14 km/h 8000
28/09 - 08:55   Chovendo fraco 16° 100% 1022 Sul/12 km/h 6000
28/09 - 07:55   Chovendo 16° 93% 1021 Sul-sudoeste/12 km/h 3000
28/09 - 06:55   Chovendo fraco 15° 100% 1021 Sul/12 km/h 3000
28/09 - 05:55   Poucas nuvens esparsas 15° 100% 1021 Sul-sudoeste/9 km/h 7000

Termo de Uso  |   Links Úteis  |   Imprensa  |  Anuncie  |  Fale Conosco  |  Versão Celular  |   Política de Privacidade

Apolo11.com - Todos os direitos reservados - 2000 - 2022

"Dinheiro não traz felicidade, mas proporciona uma sensação muito parecida e é preciso um especialista muito arguto para notar a diferença" - Oscar Wilde -